"Datum/tijd (MEZT)";"SWAN sign golfverwachting";"SWAN swell verwachting";"golfhoogte";"deininghoogte"
2024-04-27 01:00;50;9;47;5
2024-04-27 01:10;50;9;47;7
2024-04-27 01:20;50;9;48;8
2024-04-27 01:30;50;8;48;7
2024-04-27 01:40;50;8;48;7
2024-04-27 01:50;50;8;47;8
2024-04-27 02:00;50;8;46;8
2024-04-27 02:10;50;8;47;7
2024-04-27 02:20;50;8;46;7
2024-04-27 02:30;50;8;47;8
2024-04-27 02:40;50;7;49;10
2024-04-27 02:50;50;7;46;9
2024-04-27 03:00;50;7;43;9
2024-04-27 03:10;50;7;43;10
2024-04-27 03:20;50;7;41;7
2024-04-27 03:30;50;7;40;8
2024-04-27 03:40;51;7;39;8
2024-04-27 03:50;51;7;38;8
2024-04-27 04:00;51;7;39;9
2024-04-27 04:10;51;7;42;9
2024-04-27 04:20;52;7;43;8
2024-04-27 04:30;52;6;44;7
2024-04-27 04:40;52;6;44;7
2024-04-27 04:50;53;6;41;9
2024-04-27 05:00;53;6;42;9
2024-04-27 05:10;53;6;44;9
2024-04-27 05:20;53;6;45;8
2024-04-27 05:30;53;6;44;7
2024-04-27 05:40;53;5;42;7
2024-04-27 05:50;53;5;40;7
2024-04-27 06:00;53;5;40;6
2024-04-27 06:10;52;5;42;5
2024-04-27 06:20;52;5;41;6
2024-04-27 06:30;52;5;43;6
2024-04-27 06:40;51;5;43;6
2024-04-27 06:50;50;5;44;6
2024-04-27 07:00;50;5;43;6
2024-04-27 07:10;50;5;42;5
2024-04-27 07:20;50;5;42;6
2024-04-27 07:30;50;5;42;6
2024-04-27 07:40;49;5;42;6
2024-04-27 07:50;49;5;45;6
2024-04-27 08:00;49;6;46;6
2024-04-27 08:10;49;6;44;6
2024-04-27 08:20;50;6;45;5
2024-04-27 08:30;50;6;48;5
2024-04-27 08:40;50;7;47;6
2024-04-27 08:50;51;7;46;6
2024-04-27 09:00;51;7;46;5
2024-04-27 09:10;51;7;46;5
2024-04-27 09:20;51;7;47;5
2024-04-27 09:30;52;8;46;5
2024-04-27 09:40;52;8;45;6
2024-04-27 09:50;52;8;43;5
2024-04-27 10:00;52;8;43;5
2024-04-27 10:10;52;8;43;5
2024-04-27 10:20;52;8;44;5
2024-04-27 10:30;52;8;45;6
2024-04-27 10:40;52;8;44;6
2024-04-27 10:50;52;8;43;6
2024-04-27 11:00;53;8;44;5
2024-04-27 11:10;53;8;47;6
2024-04-27 11:20;53;8;47;6
2024-04-27 11:30;54;8;49;6
2024-04-27 11:40;54;7;52;7
2024-04-27 11:50;54;7;53;6
2024-04-27 12:00;54;7;53;6
2024-04-27 12:10;54;7;52;6
2024-04-27 12:20;54;7;51;7
2024-04-27 12:30;54;7;54;7
2024-04-27 12:40;53;7;56;6
2024-04-27 12:50;53;7;56;6
2024-04-27 13:00;53;7;55;6
2024-04-27 13:10;53;7;55;5
2024-04-27 13:20;53;7;58;5
2024-04-27 13:30;52;7;56;6
2024-04-27 13:40;52;7;56;7
2024-04-27 13:50;52;7;60;6
2024-04-27 14:00;51;7;59;7
2024-04-27 14:10;51;7;55;8
2024-04-27 14:20;50;7;54;7
2024-04-27 14:30;50;6;53;7
2024-04-27 14:40;50;6;52;8
2024-04-27 14:50;49;6;54;7
2024-04-27 15:00;49;6;54;7
2024-04-27 15:10;49;6;52;8
2024-04-27 15:20;49;6;47;8
2024-04-27 15:30;48;6;48;7
2024-04-27 15:40;48;6;48;8
2024-04-27 15:50;48;6;46;8
2024-04-27 16:00;48;6;46;9
2024-04-27 16:10;48;6;45;10
2024-04-27 16:20;47;6;42;9
2024-04-27 16:30;46;6;43;9
2024-04-27 16:40;46;6;42;9
2024-04-27 16:50;46;6;42;10
2024-04-27 17:00;45;6;42;10
2024-04-27 17:10;45;6;44;10
2024-04-27 17:20;45;6;44;10
2024-04-27 17:30;44;6;43;10
2024-04-27 17:40;44;6;42;10
2024-04-27 17:50;44;6;43;9
2024-04-27 18:00;44;6;48;8
2024-04-27 18:10;44;6;48;8
2024-04-27 18:20;43;6;46;8
2024-04-27 18:30;43;6;46;8
2024-04-27 18:40;43;6;43;7
2024-04-27 18:50;42;6;44;8
2024-04-27 19:00;42;6;44;9
2024-04-27 19:10;42;6;45;8
2024-04-27 19:20;41;6;47;9
2024-04-27 19:30;41;6;46;9
2024-04-27 19:40;41;5;46;9
2024-04-27 19:50;40;5;46;9
2024-04-27 20:00;41;6;43;8
2024-04-27 20:10;41;6;45;8
2024-04-27 20:20;41;6;45;9
2024-04-27 20:30;40;6;44;10
2024-04-27 20:40;40;6;42;10
2024-04-27 20:50;40;6;44;10
2024-04-27 21:00;40;6;45;11
2024-04-27 21:10;40;6;;
2024-04-27 21:20;40;6;;
2024-04-27 21:30;40;6;;
2024-04-27 21:40;39;6;39;10
2024-04-27 21:50;39;6;40;10
2024-04-27 22:00;39;6;40;11
2024-04-27 22:10;39;6;39;12
2024-04-27 22:20;38;6;38;12
2024-04-27 22:30;38;6;37;10
2024-04-27 22:40;38;6;37;10
2024-04-27 22:50;37;6;38;10
2024-04-27 23:00;37;6;38;10
2024-04-27 23:10;37;6;37;9
2024-04-27 23:20;37;6;37;9
2024-04-27 23:30;37;6;38;10
2024-04-27 23:40;37;6;37;11
2024-04-27 23:50;37;6;35;11
2024-04-28 00:00;37;6;36;12
2024-04-28 00:10;37;6;38;12
2024-04-28 00:20;37;6;38;13
2024-04-28 00:30;37;6;39;12
2024-04-28 00:40;37;6;39;12
2024-04-28 00:50;37;6;39;16
2024-04-28 01:00;37;6;39;15
2024-04-28 01:10;38;6;40;13
2024-04-28 01:20;39;6;39;15
2024-04-28 01:30;40;6;40;13
2024-04-28 01:40;40;6;42;13
2024-04-28 01:50;41;6;43;16
2024-04-28 02:00;41;6;43;15
2024-04-28 02:10;41;6;42;11
2024-04-28 02:20;41;6;43;14
2024-04-28 02:30;42;6;45;15
2024-04-28 02:40;42;6;45;13
2024-04-28 02:50;42;6;45;12
2024-04-28 03:00;42;6;44;13
2024-04-28 03:10;42;6;46;13
2024-04-28 03:20;41;6;47;12
2024-04-28 03:30;40;6;45;11
2024-04-28 03:40;40;5;44;12
2024-04-28 03:50;40;5;44;13
2024-04-28 04:00;39;5;42;11
2024-04-28 04:10;38;5;39;10
2024-04-28 04:20;38;5;35;12
2024-04-28 04:30;38;5;36;12
2024-04-28 04:40;37;5;36;13
2024-04-28 04:50;36;5;34;14
2024-04-28 05:00;37;5;32;13
2024-04-28 05:10;37;5;32;12
2024-04-28 05:20;37;5;34;13
2024-04-28 05:30;37;5;33;13
2024-04-28 05:40;37;5;32;13
2024-04-28 05:50;37;5;33;13
2024-04-28 06:00;37;5;33;12
2024-04-28 06:10;37;5;31;10
2024-04-28 06:20;37;5;31;10
2024-04-28 06:30;38;5;30;11
2024-04-28 06:40;38;5;30;11
2024-04-28 06:50;38;5;30;10
2024-04-28 07:00;38;5;31;10
2024-04-28 07:10;38;5;31;11
2024-04-28 07:20;39;5;29;12
2024-04-28 07:30;40;5;29;12
2024-04-28 07:40;40;5;31;10
2024-04-28 07:50;40;5;34;12
2024-04-28 08:00;40;6;35;13
2024-04-28 08:10;40;6;35;12
2024-04-28 08:20;40;6;37;13
2024-04-28 08:30;40;6;38;13
2024-04-28 08:40;40;6;37;12
2024-04-28 08:50;40;6;37;11
2024-04-28 09:00;40;6;38;11
2024-04-28 09:10;40;6;40;11
2024-04-28 09:20;41;6;39;12
2024-04-28 09:30;41;6;39;12
2024-04-28 09:40;41;7;41;10
2024-04-28 09:50;42;7;42;9
2024-04-28 10:00;42;7;41;9
2024-04-28 10:10;42;7;39;9
2024-04-28 10:20;42;7;37;10
2024-04-28 10:30;42;7;38;9
2024-04-28 10:40;42;7;38;9
2024-04-28 10:50;42;7;40;9
2024-04-28 11:00;42;7;38;8
2024-04-28 11:10;42;7;34;8
2024-04-28 11:20;42;7;36;9
2024-04-28 11:30;42;6;37;9
2024-04-28 11:40;41;6;34;9
2024-04-28 11:50;41;6;33;8
2024-04-28 12:00;41;6;33;7
2024-04-28 12:10;41;6;33;9
2024-04-28 12:20;42;6;36;9
2024-04-28 12:30;42;6;40;8
2024-04-28 12:40;42;6;42;9
2024-04-28 12:50;43;6;44;9
2024-04-28 13:00;43;6;45;8
2024-04-28 13:10;43;6;47;8
2024-04-28 13:20;44;6;47;9
2024-04-28 13:30;44;6;46;10
2024-04-28 13:40;44;5;;
2024-04-28 13:50;45;5;50;10
2024-04-28 14:00;45;5;51;11
2024-04-28 14:10;46;5;;
2024-04-28 14:20;47;5;55;9
2024-04-28 14:30;48;4;58;8
2024-04-28 14:40;49;4;64;9
2024-04-28 14:50;50;4;67;10
2024-04-28 15:00;51;4;63;9
2024-04-28 15:10;52;4;61;9
2024-04-28 15:20;53;4;62;8
2024-04-28 15:30;54;4;;
2024-04-28 15:40;55;4;58;9
2024-04-28 15:50;56;4;56;8
2024-04-28 16:00;57;4;;
2024-04-28 16:10;58;4;56;8
2024-04-28 16:20;60;4;57;9
2024-04-28 16:30;61;4;;
2024-04-28 16:40;62;3;67;10
2024-04-28 16:50;64;3;74;9
2024-04-28 17:00;63;3;76;8
2024-04-28 17:10;65;3;71;7
2024-04-28 17:20;67;3;67;8
2024-04-28 17:30;68;3;;
2024-04-28 17:40;70;3;68;10
2024-04-28 17:50;72;3;;
2024-04-28 18:00;74;3;73;11
2024-04-28 18:10;78;3;88;10
2024-04-28 18:20;82;3;90;8
2024-04-28 18:30;86;3;86;8
2024-04-28 18:40;91;3;85;9
2024-04-28 18:50;95;3;91;10
2024-04-28 19:00;99;3;95;9
2024-04-28 19:10;104;3;92;9
2024-04-28 19:20;109;4;98;10
2024-04-28 19:30;114;4;100;11
2024-04-28 19:40;119;4;96;11
2024-04-28 19:50;124;5;101;10
2024-04-28 20:00;121;5;104;10
2024-04-28 20:10;122;5;104;11
2024-04-28 20:20;124;5;101;11
2024-04-28 20:30;125;6;98;9
2024-04-28 20:40;126;6;102;10
2024-04-28 20:50;128;6;108;10
2024-04-28 21:00;129;6;112;9
2024-04-28 21:10;128;6;107;9
2024-04-28 21:20;128;7;103;9
2024-04-28 21:30;127;7;105;9
2024-04-28 21:40;126;7;103;9
2024-04-28 21:50;126;8;108;10
2024-04-28 22:00;125;8;110;11
2024-04-28 22:10;123;8;111;12
2024-04-28 22:20;122;8;115;12
2024-04-28 22:30;120;8;119;12
2024-04-28 22:40;118;8;118;12
2024-04-28 22:50;117;8;113;12
2024-04-28 23:00;113;8;110;14
2024-04-28 23:10;111;8;110;13
2024-04-28 23:20;110;8;110;11
2024-04-28 23:30;108;8;107;10
2024-04-28 23:40;106;7;106;10
2024-04-28 23:50;105;7;109;11
2024-04-29 00:00;103;7;109;10
2024-04-29 00:10;101;7;109;8
2024-04-29 00:20;99;6;111;9
2024-04-29 00:30;98;6;106;8
2024-04-29 00:40;96;6;98;8
2024-04-29 00:50;94;5;100;7
2024-04-29 01:00;92;5;99;7
2024-04-29 01:10;91;5;99;7
2024-04-29 01:20;90;5;97;7
2024-04-29 01:30;88;4;99;8
2024-04-29 01:40;87;4;95;8
2024-04-29 01:50;86;4;90;7
2024-04-29 02:00;84;4;92;7
2024-04-29 02:10;83;4;91;7
2024-04-29 02:20;82;4;93;7
2024-04-29 02:30;81;4;95;6
2024-04-29 02:40;80;3;91;5
2024-04-29 02:50;79;3;88;6
2024-04-29 03:00;78;3;92;7
2024-04-29 03:10;77;3;96;7
2024-04-29 03:20;76;3;89;7
2024-04-29 03:30;76;3;83;7
2024-04-29 03:40;75;3;86;8
2024-04-29 03:50;74;3;87;8
2024-04-29 04:00;73;3;85;9
2024-04-29 04:10;73;3;79;9
2024-04-29 04:20;73;3;76;8
2024-04-29 04:30;74;3;78;8
2024-04-29 04:40;74;3;78;9
2024-04-29 04:50;74;3;78;9
2024-04-29 05:00;74;3;80;10
2024-04-29 05:10;75;3;78;12
2024-04-29 05:20;75;3;77;12
2024-04-29 05:30;76;2;76;10
2024-04-29 05:40;77;2;81;11
2024-04-29 05:50;77;2;80;12
2024-04-29 06:00;78;2;77;10
2024-04-29 06:10;78;2;82;10
2024-04-29 06:20;78;2;82;9
2024-04-29 06:30;78;2;82;9
2024-04-29 06:40;79;2;85;9
2024-04-29 06:50;79;2;93;9
2024-04-29 07:00;79;2;100;9
2024-04-29 07:10;79;2;104;8
2024-04-29 07:20;78;2;101;9
2024-04-29 07:30;78;2;100;8
2024-04-29 07:40;78;2;103;8
2024-04-29 07:50;77;2;102;9
2024-04-29 08:00;77;2;92;8
2024-04-29 08:10;77;2;;
2024-04-29 08:20;76;2;;
2024-04-29 08:30;76;2;;
2024-04-29 08:40;76;2;76;6
2024-04-29 08:50;75;2;75;7
2024-04-29 09:00;75;2;80;7
2024-04-29 09:10;74;2;80;6
2024-04-29 09:20;74;2;80;4
2024-04-29 09:30;74;2;82;5
2024-04-29 09:40;73;3;87;5
2024-04-29 09:50;72;3;84;5
2024-04-29 10:00;72;3;84;5
2024-04-29 10:10;71;3;79;4
2024-04-29 10:20;71;3;73;4
2024-04-29 10:30;70;3;78;5
2024-04-29 10:40;69;3;76;4
2024-04-29 10:50;69;3;72;3
2024-04-29 11:00;68;3;73;4
2024-04-29 11:10;68;3;75;4
2024-04-29 11:20;68;3;76;3
2024-04-29 11:30;68;3;80;3
2024-04-29 11:40;68;3;81;4
2024-04-29 11:50;68;3;82;4
2024-04-29 12:00;68;3;83;4
2024-04-29 12:10;68;3;86;4
2024-04-29 12:20;68;3;93;3
2024-04-29 12:30;68;3;91;3
2024-04-29 12:40;69;3;88;3
2024-04-29 12:50;69;3;91;4
2024-04-29 13:00;69;3;88;4
2024-04-29 13:10;69;3;83;3
2024-04-29 13:20;69;3;89;3
2024-04-29 13:30;68;2;92;3
2024-04-29 13:40;68;2;89;3
2024-04-29 13:50;68;2;85;5
2024-04-29 14:00;68;2;80;4
2024-04-29 14:10;68;2;87;4
2024-04-29 14:20;68;2;87;4
2024-04-29 14:30;68;2;80;3
2024-04-29 14:40;67;2;81;3
2024-04-29 14:50;67;2;81;3
2024-04-29 15:00;67;2;76;4
2024-04-29 15:10;67;2;74;3
2024-04-29 15:20;67;2;76;3
2024-04-29 15:30;66;2;71;3
2024-04-29 15:40;66;2;68;3
2024-04-29 15:50;66;2;74;4
2024-04-29 16:00;66;2;75;4
2024-04-29 16:10;66;2;69;3
2024-04-29 16:20;66;2;67;4
2024-04-29 16:30;66;2;68;4
2024-04-29 16:40;66;2;61;4
2024-04-29 16:50;66;2;58;4
2024-04-29 17:00;66;2;60;5
2024-04-29 17:10;66;2;58;6
2024-04-29 17:20;67;2;62;5
2024-04-29 17:30;67;2;63;5
2024-04-29 17:40;67;2;64;5
2024-04-29 17:50;68;2;64;6
2024-04-29 18:00;68;2;60;6
2024-04-29 18:10;68;2;59;5
2024-04-29 18:20;68;2;61;5
2024-04-29 18:30;68;2;61;5
2024-04-29 18:40;69;2;61;5
2024-04-29 18:50;69;2;61;5
2024-04-29 19:00;69;2;58;4
2024-04-29 19:10;69;2;56;4
2024-04-29 19:20;68;2;56;4
2024-04-29 19:30;68;2;55;4
2024-04-29 19:40;68;1;57;4
2024-04-29 19:50;67;1;58;4
2024-04-29 20:00;67;1;57;4
2024-04-29 20:10;66;1;57;4
2024-04-29 20:20;66;1;57;3
2024-04-29 20:30;65;2;58;4
2024-04-29 20:40;64;2;59;4
2024-04-29 20:50;64;2;53;3
2024-04-29 21:00;63;2;50;3
2024-04-29 21:10;62;2;55;3
2024-04-29 21:20;62;2;60;4
2024-04-29 21:30;61;2;58;4
2024-04-29 21:40;60;2;54;4
2024-04-29 21:50;60;2;53;4
2024-04-29 22:00;59;2;53;3
2024-04-29 22:10;58;2;52;3
2024-04-29 22:20;57;2;49;3
2024-04-29 22:30;56;2;49;4
2024-04-29 22:40;55;3;48;3
2024-04-29 22:50;54;3;48;3
2024-04-29 23:00;53;3;51;3
2024-04-29 23:10;52;3;51;3
2024-04-29 23:20;52;3;46;3
2024-04-29 23:30;52;3;43;3
2024-04-29 23:40;51;3;44;3
2024-04-29 23:50;50;3;47;3
2024-04-30 00:00;50;3;47;3
2024-04-30 00:10;50;3;52;3
2024-04-30 00:20;50;3;54;3
2024-04-30 00:30;50;3;52;3
2024-04-30 00:40;50;3;56;3
2024-04-30 00:50;50;3;54;3
2024-04-30 01:00;50;3;52;3
2024-04-30 01:10;50;3;49;3
2024-04-30 01:20;50;3;45;3
2024-04-30 01:30;50;2;45;3
2024-04-30 01:40;49;2;50;3
2024-04-30 01:50;49;2;53;3
2024-04-30 02:00;49;2;49;3
2024-04-30 02:10;49;2;50;3
2024-04-30 02:20;49;2;52;3
2024-04-30 02:30;48;2;50;3
2024-04-30 02:40;48;2;47;4
2024-04-30 02:50;48;2;46;3
2024-04-30 03:00;48;2;48;3
2024-04-30 03:10;48;2;49;3
2024-04-30 03:20;47;2;47;3
2024-04-30 03:30;47;2;45;3
2024-04-30 03:40;47;2;;
2024-04-30 03:50;46;2;;
2024-04-30 04:00;46;2;43;4
2024-04-30 04:10;46;2;43;4
2024-04-30 04:20;45;2;46;4
2024-04-30 04:30;45;2;43;4
2024-04-30 04:40;45;2;45;4
2024-04-30 04:50;44;2;45;4
2024-04-30 05:00;44;2;39;4
2024-04-30 05:10;44;2;35;4
2024-04-30 05:20;44;2;33;5
2024-04-30 05:30;44;2;33;4
2024-04-30 05:40;43;1;32;4
2024-04-30 05:50;43;1;30;4
2024-04-30 06:00;43;1;29;4
2024-04-30 06:10;43;1;29;4
2024-04-30 06:20;43;1;29;4
2024-04-30 06:30;42;1;28;4
2024-04-30 06:40;42;1;29;5
2024-04-30 06:50;42;1;28;4
2024-04-30 07:00;42;1;26;4
2024-04-30 07:10;42;1;27;4
2024-04-30 07:20;41;1;32;4
2024-04-30 07:30;41;1;31;4
2024-04-30 07:40;41;1;28;4
2024-04-30 07:50;40;1;27;4
2024-04-30 08:00;40;1;26;3
2024-04-30 08:10;39;1;25;3
2024-04-30 08:20;39;1;26;4
2024-04-30 08:30;38;1;27;4
2024-04-30 08:40;37;1;23;3
2024-04-30 08:50;37;1;24;3
2024-04-30 09:00;36;1;24;3
2024-04-30 09:10;36;1;23;3
2024-04-30 09:20;35;1;25;3
2024-04-30 09:30;34;1;28;3
2024-04-30 09:40;34;1;30;3
2024-04-30 09:50;34;1;28;3
2024-04-30 10:00;33;1;28;3
2024-04-30 10:10;33;1;30;3
2024-04-30 10:20;32;1;30;3
2024-04-30 10:30;32;1;29;3
2024-04-30 10:40;32;1;28;3
2024-04-30 10:50;31;1;28;3
2024-04-30 11:00;32;1;26;3
2024-04-30 11:10;32;1;26;3
2024-04-30 11:20;31;1;27;3
2024-04-30 11:30;31;1;27;3
2024-04-30 11:40;31;1;;
2024-04-30 11:50;30;1;;
2024-04-30 12:00;30;1;;
2024-04-30 12:10;30;1;22;2
2024-04-30 12:20;30;1;23;3
2024-04-30 12:30;30;1;23;3
2024-04-30 12:40;29;1;22;2
2024-04-30 12:50;29;1;22;2
2024-04-30 13:00;29;1;23;2
2024-04-30 13:10;29;1;23;2
2024-04-30 13:20;28;1;23;2
2024-04-30 13:30;28;0;23;2
2024-04-30 13:40;28;0;22;2
2024-04-30 13:50;27;0;24;3
2024-04-30 14:00;26;0;24;3
2024-04-30 14:10;26;0;23;2
2024-04-30 14:20;25;0;23;2
2024-04-30 14:30;25;0;22;2
2024-04-30 14:40;25;0;22;2
2024-04-30 14:50;24;0;22;2
2024-04-30 15:00;24;0;22;2
2024-04-30 15:10;24;0;23;2
2024-04-30 15:20;23;0;24;3
2024-04-30 15:30;23;0;23;3
2024-04-30 15:40;23;0;22;3
2024-04-30 15:50;22;0;22;3
2024-04-30 16:00;22;0;21;3
2024-04-30 16:10;22;0;21;3
2024-04-30 16:20;22;0;22;3
2024-04-30 16:30;22;0;22;2
2024-04-30 16:40;22;0;21;3
2024-04-30 16:50;22;0;20;3
2024-04-30 17:00;22;0;21;3
2024-04-30 17:10;22;0;25;3
2024-04-30 17:20;22;0;24;3
2024-04-30 17:30;22;0;25;4
2024-04-30 17:40;21;0;25;4
2024-04-30 17:50;21;0;28;4
2024-04-30 18:00;21;0;31;4
2024-04-30 18:10;21;0;25;2
2024-04-30 18:20;21;0;21;3
2024-04-30 18:30;22;0;21;3
2024-04-30 18:40;22;0;21;3
2024-04-30 18:50;22;0;22;3
2024-04-30 19:00;22;0;21;3
2024-04-30 19:10;22;0;20;3
2024-04-30 19:20;22;0;21;3
2024-04-30 19:30;22;0;22;3
2024-04-30 19:40;23;0;24;3
2024-04-30 19:50;23;0;24;4
2024-04-30 20:00;23;0;21;3
2024-04-30 20:10;23;0;20;2
2024-04-30 20:20;23;0;20;2
2024-04-30 20:30;24;0;20;2
2024-04-30 20:40;24;0;21;3
2024-04-30 20:50;24;0;21;3
2024-04-30 21:00;24;0;21;2
2024-04-30 21:10;24;0;22;2
2024-04-30 21:20;24;0;24;3
2024-04-30 21:30;24;0;26;3
2024-04-30 21:40;24;0;26;3
2024-04-30 21:50;24;0;26;3
2024-04-30 22:00;24;0;25;3
2024-04-30 22:10;24;0;25;3
2024-04-30 22:20;24;0;26;4
2024-04-30 22:30;24;0;25;4
2024-04-30 22:40;24;0;24;3
2024-04-30 22:50;24;0;24;2
2024-04-30 23:00;24;0;23;3
2024-04-30 23:10;24;0;24;2
2024-04-30 23:20;24;0;24;2
2024-04-30 23:30;24;0;23;2
2024-04-30 23:40;25;0;23;2
2024-04-30 23:50;25;0;21;2
2024-05-01 00:00;25;0;20;2
2024-05-01 00:10;25;0;;
2024-05-01 00:20;25;0;;
2024-05-01 00:30;26;0;;
2024-05-01 00:40;26;0;20;2
2024-05-01 00:50;26;0;21;2
2024-05-01 01:00;26;0;21;2
2024-05-01 01:10;26;0;22;2
2024-05-01 01:20;27;0;22;2
2024-05-01 01:30;28;0;23;2
2024-05-01 01:40;28;0;23;2
2024-05-01 01:50;28;0;22;2
2024-05-01 02:00;26;0;25;2
2024-05-01 02:10;26;0;26;2
2024-05-01 02:20;26;0;25;2
2024-05-01 02:30;26;0;24;2
2024-05-01 02:40;26;0;27;2
2024-05-01 02:50;26;0;30;2
2024-05-01 03:00;26;0;30;2
2024-05-01 03:10;26;0;33;3
2024-05-01 03:20;26;0;34;3
2024-05-01 03:30;26;0;36;2
2024-05-01 03:40;27;0;39;2
2024-05-01 03:50;27;0;41;3
2024-05-01 04:00;27;0;42;3
2024-05-01 04:10;28;0;42;3
2024-05-01 04:20;28;0;44;3
2024-05-01 04:30;29;0;45;3
2024-05-01 04:40;30;0;45;3
2024-05-01 04:50;30;0;44;3
2024-05-01 05:00;30;0;44;3
2024-05-01 05:10;30;0;45;3
2024-05-01 05:20;31;0;46;3
2024-05-01 05:30;32;0;47;3
2024-05-01 05:40;32;0;43;3
2024-05-01 05:50;32;0;41;3
2024-05-01 06:00;33;0;41;3
2024-05-01 06:10;33;0;41;4
2024-05-01 06:20;33;0;40;3
2024-05-01 06:30;32;0;38;3
2024-05-01 06:40;32;0;39;4
2024-05-01 06:50;32;0;41;4
2024-05-01 07:00;32;0;42;4
2024-05-01 07:10;32;0;41;4
2024-05-01 07:20;32;0;42;3
2024-05-01 07:30;32;0;43;3
2024-05-01 07:40;33;0;44;4
2024-05-01 07:50;33;0;48;4
2024-05-01 08:00;33;0;48;3
2024-05-01 08:10;34;0;52;4
2024-05-01 08:20;34;0;51;3
2024-05-01 08:30;34;0;48;4
2024-05-01 08:40;35;0;49;4
2024-05-01 08:50;36;0;51;4
2024-05-01 09:00;36;0;50;3
2024-05-01 09:10;37;0;51;3
2024-05-01 09:20;37;0;50;3
2024-05-01 09:30;38;0;48;3
2024-05-01 09:40;39;0;50;3
2024-05-01 09:50;39;0;52;3
2024-05-01 10:00;40;0;51;3
2024-05-01 10:10;42;0;53;3
2024-05-01 10:20;43;0;54;4
2024-05-01 10:30;45;0;54;4
2024-05-01 10:40;47;0;53;4
2024-05-01 10:50;48;0;53;4
2024-05-01 11:00;47;0;54;4
2024-05-01 11:10;49;0;54;3
2024-05-01 11:20;50;0;56;3
2024-05-01 11:30;52;0;57;4
2024-05-01 11:40;54;0;57;4
2024-05-01 11:50;55;0;57;4
2024-05-01 12:00;57;0;57;5
2024-05-01 12:10;57;0;59;5
2024-05-01 12:20;57;0;60;4
2024-05-01 12:30;58;0;62;4
2024-05-01 12:40;58;0;64;5
2024-05-01 12:50;58;0;60;4
2024-05-01 13:00;58;0;58;3
2024-05-01 13:10;58;0;63;4
2024-05-01 13:20;58;0;64;6
2024-05-01 13:30;58;0;67;4
2024-05-01 13:40;57;0;65;4
2024-05-01 13:50;57;0;62;4
2024-05-01 14:00;56;0;64;4
2024-05-01 14:10;56;0;65;4
2024-05-01 14:20;56;0;68;4
2024-05-01 14:30;56;0;73;4
2024-05-01 14:40;55;0;76;5
2024-05-01 14:50;55;0;75;6
2024-05-01 15:00;55;0;69;6
2024-05-01 15:10;55;0;69;4
2024-05-01 15:20;55;0;71;4
2024-05-01 15:30;56;0;71;4
2024-05-01 15:40;56;0;70;3
2024-05-01 15:50;56;0;67;3
2024-05-01 16:00;56;0;62;4
2024-05-01 16:10;56;0;59;3
2024-05-01 16:20;57;0;61;3
2024-05-01 16:30;57;0;61;4
2024-05-01 16:40;57;0;62;4
2024-05-01 16:50;58;0;65;3
2024-05-01 17:00;56;0;67;4
2024-05-01 17:10;56;0;64;4
2024-05-01 17:20;55;0;65;4
2024-05-01 17:30;55;0;66;4
2024-05-01 17:40;55;0;65;4
2024-05-01 17:50;54;0;65;4
2024-05-01 18:00;54;0;66;4
2024-05-01 18:10;54;0;67;4
2024-05-01 18:20;53;0;66;4
2024-05-01 18:30;53;0;63;4
2024-05-01 18:40;53;0;57;5
2024-05-01 18:50;52;0;56;4
2024-05-01 19:00;52;0;58;4
2024-05-01 19:10;52;0;60;4
2024-05-01 19:20;53;0;57;4
2024-05-01 19:30;53;0;55;3
2024-05-01 19:40;53;1;55;4
2024-05-01 19:50;54;1;54;4
2024-05-01 20:00;54;1;57;5
2024-05-01 20:10;55;1;60;5
2024-05-01 20:20;56;1;59;5
2024-05-01 20:30;58;1;60;5
2024-05-01 20:40;59;1;64;4
2024-05-01 20:50;60;1;64;4
2024-05-01 21:00;61;1;63;4
2024-05-01 21:10;62;1;64;4
2024-05-01 21:20;63;1;70;5
2024-05-01 21:30;64;1;72;4
2024-05-01 21:40;66;1;72;4
2024-05-01 21:50;67;1;73;5
2024-05-01 22:00;68;1;79;5
2024-05-01 22:10;69;1;80;5
2024-05-01 22:20;70;1;81;5
2024-05-01 22:30;71;2;83;5
2024-05-01 22:40;72;2;83;5
2024-05-01 22:50;73;2;82;4
2024-05-01 23:00;72;2;81;5
2024-05-01 23:10;73;2;80;5
2024-05-01 23:20;74;2;81;5
2024-05-01 23:30;75;2;83;6
2024-05-01 23:40;76;2;83;6
2024-05-01 23:50;77;2;83;6
2024-05-02 00:00;78;2;85;6
2024-05-02 00:10;79;2;83;6
2024-05-02 00:20;81;2;83;6
2024-05-02 00:30;82;2;84;5
2024-05-02 00:40;83;3;84;7
2024-05-02 00:50;85;3;83;6
2024-05-02 01:00;86;3;79;5
2024-05-02 01:10;87;3;77;5
2024-05-02 01:20;87;3;82;6
2024-05-02 01:30;88;4;85;7
2024-05-02 01:40;89;4;84;7
2024-05-02 01:50;89;4;79;7
2024-05-02 02:00;90;4;81;7
2024-05-02 02:10;90;4;85;7
2024-05-02 02:20;91;4;84;7
2024-05-02 02:30;91;4;91;8
2024-05-02 02:40;91;4;90;8
2024-05-02 02:50;92;4;91;7
2024-05-02 03:00;92;4;96;9
2024-05-02 03:10;92;4;95;9
2024-05-02 03:20;93;4;93;8
2024-05-02 03:30;93;4;95;8
2024-05-02 03:40;93;4;98;8
2024-05-02 03:50;94;4;104;8
2024-05-02 04:00;94;4;102;8
2024-05-02 04:10;94;4;98;8
2024-05-02 04:20;94;4;100;9
2024-05-02 04:30;94;4;102;9
2024-05-02 04:40;95;4;99;8
2024-05-02 04:50;95;4;96;8
2024-05-02 05:00;95;4;104;8
2024-05-02 05:10;95;4;103;8
2024-05-02 05:20;95;4;101;9
2024-05-02 05:30;95;4;106;10
2024-05-02 05:40;95;3;103;8
2024-05-02 05:50;95;3;108;7
2024-05-02 06:00;95;3;111;7
2024-05-02 06:10;94;3;111;8
2024-05-02 06:20;94;3;107;7
2024-05-02 06:30;94;3;106;8
2024-05-02 06:40;93;3;108;8
2024-05-02 06:50;92;3;110;8
2024-05-02 07:00;92;3;114;10
2024-05-02 07:10;91;3;109;9
2024-05-02 07:20;90;3;105;8
2024-05-02 07:30;90;3;103;9
2024-05-02 07:40;89;3;107;9
2024-05-02 07:50;88;3;108;8
2024-05-02 08:00;86;4;105;9
2024-05-02 08:10;86;4;99;8
2024-05-02 08:20;85;4;95;7
2024-05-02 08:30;84;4;102;9
2024-05-02 08:40;84;4;109;10
2024-05-02 08:50;84;4;109;10
2024-05-02 09:00;83;4;110;9
2024-05-02 09:10;83;4;104;8
2024-05-02 09:20;83;4;100;7
2024-05-02 09:30;84;4;106;8
2024-05-02 09:40;84;3;107;8
2024-05-02 09:50;84;3;106;7
2024-05-02 10:00;84;3;104;7
2024-05-02 10:10;85;3;104;8
2024-05-02 10:20;86;3;103;8
2024-05-02 10:30;86;3;106;8
2024-05-02 10:40;87;3;106;7
2024-05-02 10:50;88;3;108;7
2024-05-02 11:00;89;3;103;7
2024-05-02 11:10;90;3;100;8
2024-05-02 11:20;91;3;101;7
2024-05-02 11:30;92;3;105;7
2024-05-02 11:40;92;3;107;7
2024-05-02 11:50;93;3;110;7
2024-05-02 12:00;94;3;112;7
2024-05-02 12:10;95;3;110;6
2024-05-02 12:20;96;3;111;7
2024-05-02 12:30;97;4;112;8
2024-05-02 12:40;98;4;108;8
2024-05-02 12:50;99;4;101;7
2024-05-02 13:00;100;4;107;7
2024-05-02 13:10;100;4;113;7
2024-05-02 13:20;101;4;107;7
2024-05-02 13:30;101;4;106;6
2024-05-02 13:40;101;4;114;6
2024-05-02 13:50;102;4;111;6
2024-05-02 14:00;102;4;107;6
2024-05-02 14:10;101;4;109;7
2024-05-02 14:20;101;4;104;6
2024-05-02 14:30;100;4;102;6
2024-05-02 14:40;99;5;103;6
2024-05-02 14:50;99;5;108;6
2024-05-02 15:00;98;5;112;5
2024-05-02 15:10;97;5;102;5
2024-05-02 15:20;97;5;92;5
2024-05-02 15:30;96;5;96;5
2024-05-02 15:40;95;5;99;6
2024-05-02 15:50;95;5;100;6
2024-05-02 16:00;94;5;101;6
2024-05-02 16:10;94;5;101;6
2024-05-02 16:20;93;5;95;6
2024-05-02 16:30;92;5;95;6
2024-05-02 16:40;92;5;103;5
2024-05-02 16:50;92;5;101;6
2024-05-02 17:00;91;5;98;6
2024-05-02 17:10;90;5;100;6
2024-05-02 17:20;90;5;94;6
2024-05-02 17:30;89;5;94;6
2024-05-02 17:40;88;5;95;7
2024-05-02 17:50;88;5;95;7
2024-05-02 18:00;87;5;94;6
2024-05-02 18:10;86;5;96;7
2024-05-02 18:20;86;5;97;7
2024-05-02 18:30;86;6;95;7
2024-05-02 18:40;85;6;;
2024-05-02 18:50;84;6;;
2024-05-02 19:00;84;6;;
2024-05-02 19:10;84;6;;
2024-05-02 19:20;83;6;;
2024-05-02 19:30;83;6;;
2024-05-02 19:40;83;6;;
2024-05-02 19:50;82;6;;
2024-05-02 20:00;82;6;;
2024-05-02 20:10;82;6;;
2024-05-02 20:20;82;6;;
2024-05-02 20:30;82;6;;
2024-05-02 20:40;83;7;;
2024-05-02 20:50;83;7;;
2024-05-02 21:00;83;7;;
2024-05-02 21:10;84;7;;
2024-05-02 21:20;84;7;;
2024-05-02 21:30;84;8;;
2024-05-02 21:40;85;8;;
2024-05-02 21:50;86;8;;
2024-05-02 22:00;86;8;;
2024-05-02 22:10;86;8;;